GW0883 Weather Reports


Display with metric or nautical units.
time (UTC)temp
F
wind
direction
speed
MPH
gust
MPH
rain 1hr
in
rain 24hr
in
rain mn
in
humidity
%
barometer
mb
20260507224815 58 260 5.0 8.0 0.00 0.06 0.03 39 1009.3
20260507223816 58 214 4.0 6.0 0.00 0.07 0.03 41 1009.1
20260507222815 59 210 0.0 1.0 0.00 0.07 0.03 41 1009.0
20260507221818 60 198 2.0 4.0 0.00 0.07 0.03 40 1008.8
20260507220914 60 225 1.0 4.0 0.00 0.07 0.03 41 1008.9
20260507215915 61 209 4.0 9.0 0.00 0.07 0.03 42 1008.6
20260507214917 61 209 4.0 7.0 0.00 0.08 0.03 43 1008.7
20260507214015 61 263 1.0 5.0 0.00 0.08 0.03 43 1008.6
20260507212016 61 269 5.0 7.0 0.00 0.08 0.03 43 1008.3
20260507211015 62 238 4.0 7.0 0.00 0.08 0.03 43 1008.3
20260507210015 62 47 2.0 4.0 0.00 0.08 0.03 45 1008.3
20260507205016 62 220 3.0 4.0 0.00 0.08 0.03 44 1008.4
20260507204017 62 259 4.0 8.0 0.00 0.08 0.03 45 1008.3
20260507202116 63 214 3.0 4.0 0.00 0.09 0.03 47 1008.1
20260507201116 63 288 2.0 6.0 0.00 0.09 0.03 47 1008.1
20260507200116 62 328 2.0 5.0 0.00 0.10 0.03 48 1008.1
20260507195115 62 259 3.0 6.0 0.00 0.10 0.03 49 1008.3
20260507194214 62 27 2.0 5.0 0.00 0.11 0.03 49 1008.2
20260507193216 62 255 4.0 8.0 0.00 0.11 0.03 50 1008.5
20260507192215 62 229 3.0 7.0 0.00 0.12 0.03 51 1008.4
20260507191314 62 357 3.0 5.0 0.00 0.13 0.03 52 1008.5
20260507190315 62 304 0.0 2.0 0.00 0.14 0.03 52 1008.7
20260507185315 62 226 4.0 7.0 0.00 0.15 0.03 52 1008.9
20260507184316 62 246 5.0 10.0 0.00 0.15 0.03 54 1008.9
20260507183317 61 100 3.0 5.0 0.00 0.16 0.03 55 1008.9
20260507181316 61 195 3.0 6.0 0.00 0.16 0.03 56 1009.4
20260507175415 60 114 2.0 4.0 0.00 0.16 0.03 57 1009.3
20260507174416 60 248 5.0 8.0 0.00 0.16 0.03 59 1009.5
20260507174315 60 201 2.0 7.0 0.00 0.16 0.03 58 1009.4
20260507172317 59 243 6.0 8.0 0.00 0.16 0.03 61 1009.3
20260507171315 60 288 3.0 7.0 0.00 0.16 0.03 61 1009.5
20260507170317 59 65 3.0 6.0 0.00 0.16 0.03 63 1009.6
20260507165415 60 21 2.0 4.0 0.00 0.16 0.03 64 1009.8
20260507164416 59 214 2.0 4.0 0.00 0.16 0.03 64 1009.7
20260507163415 59 310 1.0 3.0 0.00 0.16 0.03 65 1009.9
20260507162414 58 256 1.0 4.0 0.00 0.16 0.03 66 1010.0
20260507155416 58 258 5.0 8.0 0.00 0.16 0.03 69 1010.2
20260507154516 58 258 5.0 11.0 0.00 0.16 0.03 69 1010.2
20260507153417 58 191 1.0 3.0 0.00 0.16 0.03 70 1010.2
20260507150415 57 214 5.0 7.0 0.00 0.16 0.03 73 1010.6
20260507145514 58 297 3.0 4.0 0.00 0.16 0.03 74 1010.6
20260507144517 58 146 1.0 4.0 0.00 0.16 0.03 75 1010.7
20260507143515 57 240 2.0 6.0 0.00 0.16 0.03 76 1010.8
20260507142516 56 34 2.0 6.0 0.00 0.16 0.03 77 1010.8
20260507141516 56 273 2.0 4.0 0.00 0.16 0.03 77 1010.8
20260507140515 56 201 1.0 2.0 0.00 0.16 0.03 78 1010.9
20260507135516 56 244 5.0 7.0 0.00 0.16 0.03 79 1010.9
20260507134516 56 28 2.0 7.0 0.00 0.16 0.03 79 1010.6
20260507133515 56 240 2.0 4.0 0.00 0.16 0.03 80 1010.6
20260507132515 55 132 1.0 5.0 0.00 0.16 0.03 81 1010.8
20260507131517 55 325 1.0 3.0 0.00 0.16 0.03 81 1010.8
20260507130615 54 204 5.0 7.0 0.00 0.16 0.03 82 1010.8
20260507125714 54 229 1.0 4.0 0.00 0.16 0.03 82 1010.9
20260507124716 54 211 2.0 5.0 0.00 0.16 0.03 83 1011.0
20260507123814 53 4 1.0 5.0 0.00 0.16 0.03 83 1011.0
20260507122815 52 286 4.0 7.0 0.00 0.16 0.03 84 1010.9
20260507121817 52 266 2.0 6.0 0.00 0.16 0.03 84 1010.9
20260507120816 51 239 0.0 3.0 0.00 0.16 0.03 83 1011.1
20260507115817 51 253 4.0 6.0 0.00 0.16 0.03 84 1010.9
20260507114817 50 333 1.0 3.0 0.00 0.16 0.03 83 1010.9
20260507112915 49 225 1.0 3.0 0.00 0.16 0.03 84 1010.6
20260507111918 48 229 1.0 3.0 0.00 0.16 0.03 83 1010.8
20260507110915 48 223 1.0 2.0 0.00 0.16 0.03 83 1010.7
20260507105915 48 204 0.0 1.0 0.00 0.16 0.03 84 1010.6
20260507104916 47 202 0.0 1.0 0.00 0.16 0.03 84 1010.7
20260507102916 47 238 0.0 1.0 0.00 0.16 0.03 84 1010.4
20260507102015 47 223 1.0 3.0 0.01 0.16 0.03 84 1010.1
20260507101014 47 225 0.0 0.0 0.01 0.16 0.03 83 1009.9
20260507100019 47 67 0.0 0.0 0.01 0.16 0.03 83 1009.7
20260507095016 47 225 0.0 1.0 0.01 0.16 0.03 83 1010.0
20260507094015 47 67 0.0 0.0 0.01 0.16 0.03 83 1009.6
20260507093016 47 202 0.0 0.0 0.02 0.16 0.03 82 1010.2
20260507092016 47 202 0.0 0.0 0.01 0.15 0.02 82 1010.0
20260507091017 48 315 0.0 0.0 0.01 0.15 0.02 83 1010.1
20260507090015 48 225 0.0 0.0 0.01 0.15 0.02 83 1010.3
20260507085017 48 245 2.0 4.0 0.01 0.15 0.02 82 1010.6
20260507084016 48 270 0.0 0.0 0.01 0.15 0.02 82 1010.5
20260507083017 48 270 0.0 1.0 0.00 0.14 0.01 82 1010.1
20260507082016 48 209 1.0 2.0 0.01 0.14 0.01 82 1010.1
20260507081016 48 225 0.0 2.0 0.01 0.14 0.01 82 1010.0
20260507080017 48 247 1.0 2.0 0.01 0.14 0.01 83 1010.0
20260507075016 49 202 0.0 0.0 0.01 0.14 0.01 83 1010.0
20260507074017 49 310 0.0 1.0 0.01 0.14 0.01 82 1010.2
20260507073114 50 247 0.0 0.0 0.01 0.14 0.01 82 1010.1
20260507072116 51 276 0.0 1.0 0.00 0.13 0.00 83 1010.2
20260507071117 51 225 0.0 1.0 0.00 0.13 0.00 83 1009.6
20260507063216 51 225 0.0 0.0 0.00 0.13 0.00 84 1009.3
20260507062216 51 214 0.0 1.0 0.00 0.13 0.00 85 1009.5
20260507061216 52 277 1.0 2.0 0.00 0.13 0.00 85 1009.7
20260507060217 52 133 0.0 1.0 0.00 0.13 0.00 85 1009.6
20260507055315 52 315 0.0 1.0 0.00 0.13 0.00 84 1009.5
20260507054315 53 176 2.0 3.0 0.00 0.13 0.00 85 1009.6
20260507053316 53 8 1.0 3.0 0.00 0.13 0.00 85 1009.7
20260507052319 54 226 0.0 0.0 0.00 0.13 0.00 86 1009.7
20260507051316 54 225 0.0 0.0 0.00 0.13 0.00 85 1009.8
20260507050314 54 225 0.0 2.0 0.00 0.13 0.00 86 1009.8
20260507050216 54 225 0.0 1.0 0.00 0.13 0.00 85 1009.8
20260507045215 55 225 0.0 1.0 0.01 0.13 0.00 86 1009.7
20260507044217 55 216 2.0 3.0 0.01 0.13 0.00 85 1009.9
20260507043217 55 247 0.0 2.0 0.01 0.13 0.00 86 1009.7
20260507042216 56 300 0.0 2.0 0.01 0.13 0.00 86 1009.5
20260507041215 56 202 0.0 0.0 0.01 0.13 0.00 85 1009.6
20260507040217 57 208 3.0 3.0 0.01 0.13 0.00 86 1009.7
20260507035221 57 188 1.0 2.0 0.00 0.12 0.12 85 1009.6
20260507034221 58 178 0.0 2.0 0.00 0.12 0.12 86 1009.6
20260507032320 58 360 0.0 0.0 0.00 0.12 0.12 86 1009.3
20260507031320 58 225 0.0 0.0 0.00 0.12 0.12 85 1008.9
20260507030321 59 250 3.0 6.0 0.00 0.12 0.12 85 1008.9
20260507025320 59 256 3.0 7.0 0.00 0.12 0.12 84 1008.9
20260507024320 59 256 1.0 2.0 0.00 0.12 0.12 85 1008.6
20260507023320 59 270 0.0 0.0 0.00 0.12 0.12 84 1008.6
20260507022321 59 203 0.0 1.0 0.00 0.12 0.12 84 1008.7
20260507021322 59 248 2.0 3.0 0.00 0.12 0.12 84 1008.7
20260507020418 59 225 1.0 3.0 0.00 0.12 0.12 83 1008.5
20260507015321 59 224 3.0 6.0 0.00 0.12 0.12 84 1008.5
20260507014419 58 225 2.0 5.0 0.00 0.12 0.12 83 1008.7
20260507011420 59 199 1.0 5.0 0.00 0.12 0.12 83 1008.5
20260507010422 59 211 2.0 4.0 0.00 0.12 0.12 81 1008.7
20260507005422 58 224 4.0 7.0 0.00 0.12 0.12 81 1008.7
20260507004420 58 220 4.0 7.0 0.00 0.12 0.12 82 1008.8
20260507003422 58 223 1.0 5.0 0.00 0.12 0.12 81 1008.6
20260507002421 58 222 2.0 3.0 0.00 0.12 0.12 81 1008.7
20260507001519 58 260 0.0 2.0 0.00 0.12 0.12 80 1008.6
20260507000520 58 214 2.0 4.0 0.00 0.12 0.12 80 1008.6
20260506235522 58 206 1.0 4.0 0.01 0.12 0.12 79 1008.3
20260506234620 58 225 1.0 3.0 0.02 0.12 0.12 78 1008.4
20260506233621 58 213 3.0 6.0 0.03 0.12 0.12 78 1008.3
20260506232621 58 205 1.0 3.0 0.03 0.12 0.12 78 1008.4
20260506231719 58 217 3.0 5.0 0.03 0.12 0.12 77 1008.3
20260506230719 58 222 1.0 2.0 0.03 0.12 0.12 77 1008.2
20260506225721 59 217 3.0 6.0 0.02 0.11 0.11 77 1008.3